Time,TemperatureF,DewpointF,PressureIn,WindDirection,WindDirectionDegrees,WindSpeedMPH,WindSpeedGustMPH,Humidity,HourlyPrecipIn,Conditions,Clouds,dailyrainin,SoftwareType,DateUTC
2013-08-26 00:29:00,58.8,58.2,30.01,SSW,208,1.0,1.0,98,0.06,,---,0.02,VWS V14.00,2013-08-26 04:29:00,
2013-08-26 00:59:00,59.4,58.8,30.00,South,186,0.0,0.0,98,0.02,,---,0.02,VWS V14.00,2013-08-26 04:59:00,
2013-08-26 01:29:00,59.8,59.5,29.99,SSE,157,0.0,1.0,99,0.02,,---,0.02,VWS V14.00,2013-08-26 05:29:00,
2013-08-26 01:59:00,60.0,59.4,29.98,South,182,0.0,1.0,98,0.01,,---,0.02,VWS V14.00,2013-08-26 05:59:00,
2013-08-26 02:29:00,60.2,59.9,29.97,East,88,2.0,2.0,99,0.01,,---,0.02,VWS V14.00,2013-08-26 06:29:00,
2013-08-26 02:59:00,60.3,59.7,29.96,West,269,0.0,0.0,98,0.01,,---,0.02,VWS V14.00,2013-08-26 06:59:00,
2013-08-26 03:29:00,60.4,60.1,29.95,East,92,0.0,0.0,99,0.00,,---,0.02,VWS V14.00,2013-08-26 07:29:00,
2013-08-26 03:59:00,60.3,59.7,29.94,NE,49,0.0,0.0,98,0.00,,---,0.02,VWS V14.00,2013-08-26 07:59:00,
2013-08-26 04:29:00,60.5,60.2,29.94,NE,49,0.0,0.0,99,0.00,,---,0.02,VWS V14.00,2013-08-26 08:29:00,
2013-08-26 04:59:00,60.5,60.2,29.93,NE,49,0.0,0.0,99,0.00,,---,0.02,VWS V14.00,2013-08-26 08:59:00,
2013-08-26 05:29:00,60.7,60.4,29.93,NE,51,0.0,1.0,99,0.00,,---,0.02,VWS V14.00,2013-08-26 09:29:00,
2013-08-26 05:59:00,60.9,60.6,29.93,East,92,1.0,1.0,99,0.00,,---,0.02,VWS V14.00,2013-08-26 09:59:00,
2013-08-26 06:29:00,61.1,60.8,29.92,ENE,72,0.0,1.0,99,0.00,,---,0.02,VWS V14.00,2013-08-26 10:29:00,
2013-08-26 06:59:00,61.4,61.1,29.93,WNW,283,0.0,0.0,99,0.00,,---,0.02,VWS V14.00,2013-08-26 10:59:00,
2013-08-26 07:29:00,61.8,61.5,29.93,NW,319,0.0,1.0,99,0.00,,---,0.02,VWS V14.00,2013-08-26 11:29:00,
2013-08-26 07:59:00,62.3,62.0,29.93,SW,223,0.0,5.0,99,0.00,,---,0.02,VWS V14.00,2013-08-26 11:59:00,
2013-08-26 15:30:00,70.3,65.6,29.88,East,90,1.0,4.0,85,0.00,,---,0.02,VWS V14.00,2013-08-26 19:30:00,
2013-08-26 16:29:00,70.6,66.2,29.86,NW,315,0.0,1.0,86,0.00,,---,0.02,VWS V14.00,2013-08-26 20:29:00,
2013-08-26 16:59:00,70.5,66.8,29.86,NW,315,1.0,3.0,88,0.00,,---,0.02,VWS V14.00,2013-08-26 20:59:00,
2013-08-26 17:29:00,70.4,66.0,29.86,West,262,0.0,0.0,86,0.00,,---,0.02,VWS V14.00,2013-08-26 21:29:00,
2013-08-26 17:59:00,70.5,67.1,29.86,SW,227,0.0,0.0,89,0.00,,---,0.02,VWS V14.00,2013-08-26 21:59:00,
2013-08-26 18:29:00,70.0,66.6,29.86,SSE,165,1.0,2.0,89,0.00,,---,0.02,VWS V14.00,2013-08-26 22:29:00,
2013-08-26 18:59:00,68.5,66.1,29.87,East,91,0.0,0.0,92,0.00,,---,0.02,VWS V14.00,2013-08-26 22:59:00,
2013-08-26 19:29:00,67.8,65.7,29.87,East,90,0.0,0.0,93,0.00,,---,0.02,VWS V14.00,2013-08-26 23:29:00,
2013-08-26 19:59:00,67.2,65.4,29.87,North,360,0.0,0.0,94,0.00,,---,0.02,VWS V14.00,2013-08-26 23:59:00,
2013-08-26 20:29:00,66.9,65.4,29.86,NNW,334,0.0,0.0,95,0.00,,---,0.02,VWS V14.00,2013-08-27 00:29:00,
2013-08-26 21:00:00,65.9,64.4,29.87,NNW,334,0.0,0.0,95,0.00,,---,0.02,VWS V14.00,2013-08-27 01:00:00,
2013-08-26 21:30:00,65.0,64.1,29.87,NNW,334,0.0,0.0,97,0.00,,---,0.02,VWS V14.00,2013-08-27 01:30:00,
2013-08-26 22:00:00,64.7,64.1,29.87,NNW,334,0.0,2.0,98,0.00,,---,0.02,VWS V14.00,2013-08-27 02:00:00,
2013-08-26 22:30:00,64.8,64.2,29.86,NE,56,0.0,3.0,98,0.00,,---,0.02,VWS V14.00,2013-08-27 02:30:00,
2013-08-26 23:00:00,64.5,63.6,29.87,NE,53,0.0,0.0,97,0.00,,---,0.02,VWS V14.00,2013-08-27 03:00:00,
2013-08-26 23:30:00,64.2,63.6,29.87,NE,38,1.0,1.0,98,0.00,,---,0.02,VWS V14.00,2013-08-27 03:30:00,